Wind_Speed
4 4 3 2 3 4 3 4 1 1 2 2 12 8 8 8 1 1 17 24 22 22 22 19 17 17 16 15 14 12 11 11 10 8 7 6 5 5 4 4 4 3 2 2 3 4 5 7 7
5 5 2 1 4 3 4 3 4 1 13 20 15 10 6 4 4 12 20 18 23 23 22 19 18 16 16 14 12 12 11 9 8 6 6 6 5 5 5 5 5 6 6 6 5 6 6 6 6
6 3 1 3 3 4 3 3 4 13 11 8 6 12 6 4 10 29 15 23 23 22 20 18 16 15 14 12 11 10 8 7 6 6 6 6 6 6 6 6 7 7 7 8 8 7 7 6 5
6 3 2 4 3 4 3 5 7 7 8 11 11 6 4 1 16 15 21 23 23 21 19 17 15 14 13 12 10 9 7 6 6 6 6 6 7 7 7 7 7 7 7 8 8 8 8 8 8
5 1 3 3 2 4 0 7 6 6 4 18 12 5 4 9 4 15 22 22 21 20 19 17 15 14 12 10 8 7 6 6 6 7 8 7 7 7 8 8 8 8 7 7 8 9 9 9 9
2 2 4 1 3 5 2 12 2 8 11 12 6 13 4 11 9 19 20 21 19 18 18 17 15 12 9 7 6 6 6 7 8 8 9 8 8 9 9 9 10 9 8 8 8 9 8 9 9
2 4 4 5 2 5 3 10 6 9 8 4 18 4 6 17 20 19 21 20 19 18 18 16 13 10 8 7 6 7 8 9 9 9 9 9 8 9 10 11 10 11 11 10 10 11 11 11 10
1 5 1 2 2 3 6 12 15 4 1 17 15 6 7 26 23 20 20 19 20 19 16 13 11 9 8 8 8 8 8 9 9 9 9 8 9 8 8 7 8 8 7 7 9 9 10 10 11
1 4 2 5 2 2 15 17 20 3 12 2 5 12 23 28 24 23 23 23 22 19 16 12 8 8 8 9 10 10 10 10 10 10 8 6 7 6 5 4 5 6 4 5 4 6 7 8 10
4 4 7 6 11 8 17 8 8 5 5 4 8 12 32 27 26 26 27 26 22 18 15 11 8 8 10 10 10 10 10 9 11 10 7 5 4 2 2 3 4 4 4 3 3 4 6 7 9
4 4 6 9 22 23 12 8 4 13 2 13 26 33 31 28 26 24 24 23 19 16 15 11 9 11 10 9 8 10 9 8 7 5 4 3 3 4 3 4 5 5 5 5 5 6 6 7 9
2 11 11 14 23 13 11 12 5 8 8 22 24 32 33 29 26 24 24 22 19 17 14 13 11 11 10 8 6 6 5 3 2 0 2 4 4 7 7 7 8 8 7 8 9 10 10 11 13
4 2 7 16 16 12 16 6 9 6 13 19 27 31 31 28 25 21 19 18 19 17 15 13 12 11 12 11 9 7 5 4 4 5 5 7 8 9 10 12 11 10 11 12 12 14 15 16 18
3 8 12 15 13 15 8 5 9 5 20 24 30 31 30 29 27 21 21 20 21 17 15 15 13 12 11 9 5 4 7 9 9 10 9 9 9 10 10 11 11 11 14 15 16 17 19 19 19
8 5 6 5 5 4 10 2 2 16 24 25 30 28 27 27 25 23 21 20 19 18 18 18 16 14 11 10 6 3 6 9 12 11 10 11 11 12 11 10 11 13 16 18 18 19 21 22 25
5 5 4 3 4 2 3 5 1 20 28 22 21 20 21 23 23 25 25 22 22 24 24 24 22 19 14 10 3 4 11 13 15 12 12 13 14 13 14 14 16 18 18 19 21 23 24 26 28
6 3 1 2 2 3 2 1 10 18 24 16 17 15 16 18 19 22 26 26 24 26 29 29 24 19 17 13 17 19 19 18 16 11 12 14 16 17 17 18 17 16 18 22 23 25 27 29 31
4 3 1 3 1 4 4 4 7 4 14 11 11 11 12 14 14 15 16 20 24 28 30 29 21 18 13 18 14 14 8 3 2 7 8 9 11 13 14 15 17 19 22 24 26 27 27 30 32
4 4 2 1 2 6 5 4 7 7 9 9 11 14 15 10 6 6 7 8 11 16 18 16 16 15 15 3 3 3 2 5 10 12 13 14 16 17 19 21 23 24 26 26 28 30 31 31 31
5 5 2 2 6 5 6 6 5 9 6 8 15 21 23 24 21 19 16 13 12 10 4 2 8 8 6 5 4 3 5 7 13 16 16 16 17 19 21 22 23 24 26 29 30 30 31 30 30
5 6 0 4 2 7 5 3 4 5 11 14 17 20 20 20 19 16 11 8 11 16 16 14 12 9 7 5 6 5 4 8 13 17 19 20 20 18 19 21 23 26 27 27 29 28 28 30 27
3 1 2 4 4 2 2 3 2 3 4 5 10 14 14 15 13 12 14 17 15 15 14 14 13 9 6 4 2 4 7 11 13 15 17 16 17 19 22 24 25 26 26 26 28 29 28 25 21
1 5 4 4 5 4 4 4 5 4 4 4 6 10 13 14 14 15 13 12 12 9 9 7 5 2 2 4 5 8 9 12 13 13 16 16 18 20 22 23 23 24 25 27 27 24 21 18 17
4 5 8 5 3 2 2 4 4 4 5 5 8 13 16 15 15 13 11 8 8 8 7 5 2 4 8 8 9 10 13 15 15 15 15 18 20 20 20 20 22 24 25 26 25 23 20 16 14
6 5 3 3 2 4 3 2 5 3 5 12 17 18 16 15 15 15 13 11 9 6 9 4 4 5 10 8 9 10 11 13 14 16 16 14 14 18 19 22 23 24 25 24 22 20 18 19 17
3 5 4 4 3 3 4 3 4 5 9 20 22 20 18 17 16 13 13 12 10 8 8 5 4 7 9 9 10 11 13 14 17 18 19 17 20 23 24 24 25 25 25 22 18 18 17 16 16
2 3 3 6 3 2 2 4 3 5 3 17 23 22 19 15 13 11 12 11 9 7 5 2 4 8 9 10 11 13 14 20 23 22 22 22 23 26 25 25 24 21 20 18 17 15 15 15 17
2 5 2 3 3 3 3 4 4 5 7 6 8 19 19 14 12 9 9 8 6 4 2 4 6 9 10 11 14 15 19 22 24 22 21 23 25 25 25 22 20 22 20 17 15 16 16 18 18
2 2 5 5 3 4 1 5 4 10 11 10 15 19 14 14 11 9 9 9 6 3 3 6 10 12 12 14 13 18 20 20 21 20 23 25 23 24 25 22 24 26 24 17 17 19 16 18 19
2 3 4 4 3 2 3 5 2 2 8 12 11 13 13 13 13 11 8 4 1 4 6 8 12 11 11 11 16 20 23 20 21 21 23 22 22 22 24 23 27 25 22 19 19 16 18 17 17
Wind_Direction
226 208 210 178 80 69 286 277 108 212 75 78 83 106 112 57 27 194 146 164 167 158 155 154 157 157 158 163 160 155 151 148 142 137 122 115 107 104 91 82 70 48 24 5 1 350 342 344 338
206 184 195 233 95 60 275 280 48 128 126 99 75 87 69 78 90 134 146 160 164 158 151 152 154 155 158 157 150 153 147 141 135 133 124 107 92 79 65 56 48 39 33 34 34 30 20 13 351
191 174 79 100 95 180 215 145 154 141 68 109 86 51 50 346 141 146 164 160 165 156 150 153 155 154 152 152 150 143 141 143 146 131 112 100 93 81 71 67 64 63 58 56 50 43 33 30 13
166 154 55 96 213 268 172 158 155 147 88 81 43 51 13 196 140 150 156 162 164 156 154 156 155 153 151 144 145 150 155 148 135 124 110 99 89 82 82 77 72 66 57 53 48 46 39 34 27
183 142 68 69 290 269 208 125 171 62 86 121 136 203 148 168 150 158 159 165 165 157 155 154 154 149 144 147 153 155 151 141 134 117 108 107 101 97 87 80 69 60 55 51 43 36 32 26 24
182 103 70 170 350 308 61 133 119 99 142 141 118 133 150 170 173 161 163 164 164 160 155 150 148 144 144 143 148 151 142 132 125 121 116 113 106 98 89 82 74 66 60 58 52 43 39 37 34
143 85 166 172 16 1 65 109 43 99 171 155 139 87 144 158 157 157 160 163 164 158 149 147 146 144 137 140 142 141 137 133 128 127 123 114 105 97 90 82 74 60 64 61 53 57 56 48 35
201 101 171 43 99 27 28 71 63 178 172 141 137 165 166 160 159 159 161 164 160 152 151 150 144 136 141 142 140 137 134 131 131 126 122 108 107 97 86 81 70 63 62 59 56 54 51 45 34
154 63 195 159 335 356 109 130 224 251 147 140 195 165 163 159 160 163 163 164 160 157 156 146 145 146 152 150 145 143 142 141 140 133 117 108 113 101 83 66 57 49 56 59 50 45 41 36 28
110 122 215 171 160 152 193 158 164 158 137 62 126 150 156 161 163 164 165 163 162 163 159 154 160 155 148 144 144 141 139 148 145 135 116 100 89 58 27 16 13 6 9 11 4 8 4 359 360
162 201 176 224 151 190 195 154 186 138 247 186 154 153 164 165 166 169 168 170 166 167 167 157 164 161 155 150 146 147 146 144 147 143 118 61 36 356 326 321 318 321 328 320 321 324 321 318 317
177 223 192 202 198 147 144 166 156 168 202 175 166 163 166 170 170 172 178 178 180 179 167 172 168 168 164 169 172 175 171 165 157 0 318 336 341 351 348 319 305 312 309 304 304 308 306 306 312
219 125 158 177 195 178 160 176 175 218 164 165 165 169 172 175 177 180 187 183 187 186 181 188 185 177 181 185 194 208 227 243 252 280 315 315 322 328 334 328 307 300 302 299 297 296 297 302 306
124 93 111 133 144 161 143 152 167 180 159 163 172 178 182 185 184 189 198 199 200 198 200 201 201 198 205 209 216 236 263 266 271 276 280 296 304 310 312 309 297 291 296 292 292 293 292 295 300
101 55 55 49 108 105 129 59 190 164 168 172 181 185 189 193 197 206 215 218 219 218 218 216 208 209 213 215 210 249 270 274 259 257 267 273 268 274 281 283 277 284 284 280 283 291 292 293 299
72 47 77 301 129 132 119 241 236 173 172 174 183 187 200 203 213 219 226 232 231 230 228 225 216 211 208 178 126 306 293 263 255 254 268 271 270 275 282 279 280 279 280 284 292 296 295 299 305
10 137 157 82 79 135 119 213 2 174 177 164 179 188 201 210 222 232 237 241 244 238 234 230 227 206 197 181 350 272 246 256 253 261 272 275 278 280 282 283 282 298 293 296 302 305 307 306 304
191 158 190 189 209 69 60 31 356 154 174 151 155 158 179 204 225 237 241 239 241 236 231 229 216 192 205 245 274 251 263 256 342 319 304 295 294 295 296 302 305 306 309 307 305 306 306 309 310
146 137 145 241 345 85 70 54 11 40 119 116 125 130 131 140 157 187 196 198 205 211 214 219 222 233 234 278 116 125 286 13 23 10 353 335 321 310 304 303 306 309 309 311 313 313 314 313 315
72 97 95 30 5 96 88 54 32 45 52 109 127 126 120 113 110 108 111 115 123 133 123 164 112 129 117 109 106 65 37 37 3 353 346 336 329 326 317 312 313 314 314 313 315 318 320 321 321
40 104 108 146 94 54 106 37 37 40 89 116 127 130 131 133 132 123 103 93 94 94 90 85 81 89 85 64 38 27 17 346 344 342 338 335 332 320 313 312 311 310 311 314 317 318 319 320 319
109 119 118 81 81 165 31 255 46 117 90 94 144 149 148 144 134 126 124 115 102 95 90 76 81 95 85 80 31 329 325 333 330 331 325 318 317 316 314 313 314 315 319 321 322 321 320 315 308
90 61 62 80 82 92 11 87 259 150 171 177 166 158 151 141 131 126 128 119 95 99 99 93 72 38 349 333 323 325 332 331 332 323 316 312 315 313 312 316 320 324 326 326 326 328 328 319 309
124 56 36 46 66 43 314 133 263 199 183 148 175 172 164 157 150 150 154 155 140 146 161 165 142 301 331 326 324 331 335 333 325 319 319 318 317 319 323 326 325 327 329 330 327 326 328 325 320
71 62 9 6 7 218 322 108 247 246 186 169 181 182 175 171 173 178 180 180 177 187 203 200 274 297 316 303 310 321 327 326 330 328 324 324 334 341 338 333 332 328 324 324 320 318 323 320 308
71 136 152 208 193 237 349 248 258 277 259 190 173 175 183 191 193 200 204 198 204 204 216 228 274 299 300 297 316 332 333 339 343 341 336 329 333 334 332 332 331 326 319 314 309 305 303 304 306
184 61 157 106 3 57 260 292 327 40 91 160 179 190 199 205 205 220 219 209 212 204 236 273 301 311 308 314 321 330 337 340 339 338 336 333 330 328 326 323 315 311 307 302 299 300 308 302 309
122 147 76 16 137 253 291 270 229 189 200 191 194 198 200 214 209 191 190 178 175 193 226 294 303 313 311 318 325 330 336 337 336 335 328 325 328 324 315 303 306 317 307 293 292 301 305 305 305
24 77 56 107 109 152 264 263 234 201 193 192 202 202 211 188 173 168 162 163 175 200 268 307 309 306 308 318 328 331 331 330 326 320 321 321 315 315 305 301 311 311 302 293 300 301 298 302 306
196 150 133 114 200 78 140 274 348 172 178 211 179 161 158 151 146 146 148 146 191 308 321 308 304 304 314 312 309 311 315 315 318 308 310 316 317 314 303 296 304 306 292 289 296 294 306 313 309
Height
1512 1511 1513 1512 1521 1527 1532 1520 1511 1515 1516 1518 1520 1522 1528 1532 1532 1538 1532 1537 1540 1543 1547 1550 1553 1554 1556 1558 1559 1561 1562 1564 1565 1566 1567 1567 1567 1568 1568 1568 1568 1569 1569 1570 1570 1569 1569 1568 1567
1511 1511 1513 1512 1525 1537 1535 1515 1513 1518 1518 1518 1522 1525 1527 1532 1532 1533 1536 1539 1544 1545 1548 1550 1552 1555 1557 1560 1560 1562 1563 1564 1565 1566 1566 1567 1567 1568 1568 1568 1568 1568 1569 1568 1568 1567 1567 1566 1568
1509 1510 1512 1516 1526 1532 1530 1513 1516 1518 1517 1516 1523 1526 1527 1535 1533 1534 1538 1542 1545 1547 1549 1553 1555 1556 1558 1560 1561 1563 1564 1564 1565 1566 1566 1567 1568 1568 1568 1568 1569 1569 1569 1567 1568 1567 1568 1566 1567
1509 1511 1513 1521 1522 1518 1513 1513 1514 1516 1516 1515 1522 1529 1535 1536 1534 1537 1540 1545 1547 1548 1550 1554 1556 1557 1559 1560 1562 1563 1563 1564 1566 1566 1567 1568 1569 1569 1569 1569 1569 1569 1569 1568 1568 1567 1567 1568 1567
1509 1511 1520 1526 1522 1517 1511 1512 1518 1515 1518 1519 1522 1530 1532 1534 1537 1538 1541 1546 1549 1550 1552 1554 1557 1558 1558 1561 1562 1563 1564 1564 1566 1567 1568 1569 1569 1569 1570 1570 1570 1570 1571 1569 1569 1569 1568 1569 1568
1509 1510 1527 1532 1522 1514 1512 1514 1519 1516 1519 1523 1523 1529 1532 1533 1537 1540 1543 1547 1550 1552 1553 1555 1558 1559 1560 1561 1563 1564 1565 1566 1567 1568 1568 1570 1570 1570 1570 1570 1570 1571 1571 1570 1571 1570 1569 1569 1569
1508 1516 1525 1524 1521 1517 1513 1514 1520 1518 1522 1524 1522 1529 1533 1534 1539 1542 1545 1548 1551 1554 1555 1556 1558 1559 1560 1561 1562 1564 1565 1565 1567 1568 1569 1570 1571 1570 1570 1571 1571 1571 1572 1572 1572 1571 1569 1570 1570
1508 1512 1522 1519 1523 1522 1513 1516 1520 1523 1521 1522 1525 1529 1533 1535 1540 1544 1546 1549 1552 1553 1556 1558 1559 1559 1561 1561 1562 1564 1565 1568 1569 1570 1571 1570 1571 1572 1572 1572 1572 1571 1572 1572 1573 1572 1571 1570 1571
1507 1516 1524 1522 1521 1520 1516 1522 1527 1524 1521 1524 1526 1527 1530 1536 1540 1543 1546 1550 1553 1554 1556 1558 1559 1560 1561 1561 1562 1563 1565 1567 1569 1570 1571 1572 1571 1571 1571 1572 1572 1571 1572 1571 1572 1572 1571 1570 1570
1507 1520 1516 1512 1514 1517 1517 1516 1522 1525 1524 1524 1524 1528 1532 1537 1540 1542 1545 1549 1552 1555 1555 1557 1559 1559 1561 1562 1563 1564 1567 1568 1569 1570 1571 1572 1571 1572 1572 1571 1571 1572 1571 1570 1571 1570 1570 1570 1569
1506 1512 1509 1509 1505 1505 1510 1518 1521 1523 1526 1522 1522 1527 1534 1537 1540 1544 1547 1550 1552 1554 1556 1557 1558 1560 1563 1564 1565 1566 1567 1569 1570 1571 1571 1572 1572 1572 1572 1571 1571 1571 1570 1570 1569 1569 1568 1568 1567
1506 1502 1502 1500 1501 1505 1512 1518 1520 1522 1520 1521 1523 1527 1531 1537 1539 1543 1547 1549 1552 1554 1556 1557 1557 1560 1563 1565 1566 1568 1569 1570 1570 1571 1572 1572 1571 1570 1569 1570 1570 1569 1569 1568 1567 1567 1567 1566 1565
1503 1503 1503 1501 1506 1510 1515 1518 1519 1521 1521 1524 1528 1531 1532 1536 1539 1543 1547 1548 1551 1555 1556 1559 1559 1561 1563 1566 1568 1569 1569 1571 1572 1572 1570 1572 1570 1569 1568 1568 1568 1567 1568 1567 1566 1565 1564 1564 1563
1498 1502 1502 1505 1509 1511 1514 1518 1520 1521 1522 1525 1528 1530 1533 1536 1541 1544 1545 1546 1549 1554 1556 1559 1561 1563 1565 1566 1568 1569 1570 1571 1571 1571 1570 1570 1568 1567 1568 1567 1566 1566 1566 1565 1564 1563 1562 1560 1559
1499 1504 1502 1506 1508 1511 1513 1518 1520 1519 1523 1525 1529 1533 1537 1540 1542 1544 1546 1548 1551 1553 1558 1559 1560 1563 1564 1566 1568 1570 1570 1569 1569 1568 1568 1566 1565 1565 1565 1565 1564 1563 1562 1561 1560 1559 1558 1556 1555
1504 1509 1518 1509 1509 1513 1515 1529 1518 1520 1522 1528 1532 1535 1538 1540 1542 1543 1545 1547 1550 1552 1554 1557 1558 1561 1563 1565 1568 1569 1567 1566 1565 1565 1564 1564 1563 1563 1562 1562 1561 1560 1559 1559 1557 1556 1554 1551 1549
1514 1523 1518 1513 1510 1512 1514 1521 1523 1522 1524 1528 1531 1534 1537 1539 1542 1543 1543 1545 1548 1550 1552 1554 1556 1560 1562 1563 1563 1563 1564 1563 1562 1563 1563 1563 1563 1561 1561 1559 1557 1558 1554 1556 1552 1550 1548 1545 1543
1520 1519 1517 1517 1513 1511 1518 1530 1528 1526 1527 1528 1532 1534 1537 1540 1541 1541 1542 1544 1545 1545 1547 1549 1553 1558 1558 1558 1558 1562 1562 1564 1563 1563 1564 1563 1562 1561 1559 1558 1556 1554 1551 1550 1547 1545 1543 1539 1535
1508 1513 1515 1515 1512 1519 1532 1536 1534 1530 1531 1533 1535 1537 1539 1539 1540 1540 1542 1543 1544 1546 1547 1550 1553 1557 1562 1561 1560 1562 1564 1564 1563 1563 1563 1562 1561 1559 1557 1554 1552 1549 1547 1544 1542 1539 1536 1534 1530
1510 1517 1520 1516 1515 1518 1533 1539 1537 1535 1538 1537 1538 1540 1540 1541 1543 1544 1546 1547 1548 1549 1549 1552 1555 1558 1560 1560 1561 1562 1562 1563 1562 1562 1561 1560 1558 1556 1553 1550 1547 1545 1542 1540 1537 1534 1531 1528 1525
1516 1519 1519 1520 1519 1523 1530 1541 1541 1541 1540 1540 1542 1543 1544 1545 1545 1547 1548 1549 1550 1551 1553 1555 1557 1560 1562 1563 1562 1562 1562 1562 1560 1559 1557 1555 1553 1550 1548 1545 1543 1541 1538 1535 1533 1530 1527 1523 1521
1519 1516 1517 1522 1526 1540 1531 1550 1540 1542 1543 1543 1544 1546 1547 1548 1548 1549 1549 1549 1551 1554 1556 1557 1559 1562 1562 1562 1562 1561 1560 1559 1558 1556 1553 1551 1548 1546 1543 1541 1539 1536 1534 1531 1529 1526 1523 1520 1518
1517 1515 1519 1523 1533 1536 1538 1550 1543 1541 1544 1545 1546 1547 1548 1548 1549 1550 1553 1553 1552 1556 1557 1557 1558 1561 1561 1561 1560 1559 1557 1555 1553 1552 1549 1547 1545 1543 1540 1538 1535 1533 1530 1527 1523 1521 1518 1515 1513
1514 1520 1526 1532 1539 1552 1539 1545 1544 1544 1540 1544 1545 1545 1546 1548 1549 1550 1551 1553 1552 1554 1556 1554 1554 1558 1558 1557 1557 1556 1554 1553 1551 1549 1547 1544 1541 1539 1536 1534 1531 1528 1525 1521 1518 1516 1514 1512 1511
1519 1530 1554 1553 1558 1558 1541 1546 1541 1533 1534 1534 1539 1542 1545 1547 1549 1550 1551 1552 1553 1550 1556 1555 1556 1556 1557 1556 1555 1554 1552 1550 1549 1547 1544 1541 1538 1535 1532 1530 1527 1524 1521 1518 1514 1512 1510 1509 1508
1523 1529 1554 1546 1562 1552 1542 1547 1539 1532 1529 1532 1536 1540 1543 1545 1548 1550 1551 1551 1552 1552 1554 1554 1555 1555 1555 1554 1552 1552 1550 1548 1545 1542 1539 1536 1534 1531 1528 1526 1523 1521 1518 1515 1512 1509 1507 1506 1505
1524 1536 1532 1552 1560 1561 1554 1541 1535 1532 1532 1533 1536 1539 1541 1544 1546 1547 1548 1549 1549 1551 1553 1553 1553 1553 1553 1553 1551 1549 1546 1543 1540 1537 1534 1532 1530 1528 1525 1522 1519 1516 1513 1511 1509 1506 1504 1504 1501
1519 1526 1540 1550 1560 1552 1553 1547 1544 1537 1536 1536 1537 1538 1540 1543 1544 1544 1545 1547 1548 1549 1549 1549 1551 1551 1550 1549 1547 1545 1542 1539 1536 1534 1532 1528 1525 1522 1519 1516 1514 1511 1508 1506 1504 1502 1500 1499 1497
1527 1532 1540 1546 1556 1566 1574 1550 1531 1529 1529 1531 1533 1537 1539 1541 1541 1542 1544 1545 1546 1548 1547 1547 1548 1547 1546 1546 1544 1541 1539 1536 1533 1529 1526 1523 1520 1516 1514 1511 1508 1505 1503 1501 1501 1499 1497 1495 1493
1522 1526 1534 1556 1550 1564 1568 1552 1529 1528 1528 1531 1534 1536 1538 1539 1540 1542 1544 1545 1545 1545 1545 1545 1544 1543 1543 1541 1540 1537 1535 1531 1528 1525 1522 1518 1515 1512 1509 1506 1503 1500 1498 1497 1496 1495 1493 1490 1487